701  
ASUS43 KMPX 020110  
RWRMN  
WEATHER ROUNDUP FOR MINNESOTA  
NATIONAL WEATHER SERVICE TWIN CITIES/CHANHASSEN MN  
800 PM CDT MON SEP 01 2014  
 
NOTE: "FAIR" INDICATES FEW OR NO CLOUDS BELOW 12,000 FEET WITH NO  
SIGNIFICANT WEATHER AND/OR S TO VISIBILITY
. N/A MEANS  
CURRENT SKY AND/OR WEATHER CONDITIONS ARE NOT AVAILABLE.  
 
MNZ060>063-068>070-020200-  
TWIN CITIES METRO  
 
CITY SKY/WX TMP DP RH WIND PRES REMARKS
 
TWIN CITIES PTCLDY 73 55 53 W5 29.78R  
ST PAUL CLEAR 71 55 56 W8 29.78R  
CRYSTAL CLEAR 71 56 58 W7 29.76R  
BLAINE CLEAR 72 55 56 W5 29.77R  
LAKEVILLE CLEAR 66 55 68 W5 29.80R  
EDEN PRAIRIE CLEAR 69 57 65 SW5 29.78R  
SOUTH ST PAUL CLEAR 71 55 56 W6 29.78R  
LAKE ELMO FAIR 64 55 72 W3 29.79R  

 
MNZ001>005-007-008-013>017-022>024-027-028-020200-  
NORTHWEST MINNESOTA  
 
CITY SKY/WX TMP DP RH WIND PRES REMARKS
 
BEMIDJI CLOUDY 60 55 82 W6 29.74S  
HALLOCK CLEAR 63 55 77 SW7 29.70S  
ROSEAU CLEAR 61 55 82 SW6 29.71S  
WARROAD PTCLDY 61 55 82 SW7 29.71R  
THIEF RVR FALL PTCLDY 63 54 72 CALM 29.74R  
CROOKSTON CLEAR 64 59 82 SW3 29.74S  
FOSSTON MOCLDY 59 55 88 CALM 29.75F  
DETROIT LAKES MOCLDY 59 55 88 CALM 29.78S  
MOORHEAD PTCLDY 64 63 94 E3 29.77R  
PARK RAPIDS LGT RAIN 58 56 93 SE6 29.76S  
MAHNOMEN FAIR 57 56 95 S6 29.75S  

 
MNZ006-009>011-018-025>026-020200-  
NORTH CENTRAL MINNESOTA  
 
CITY SKY/WX TMP DP RH WIND PRES REMARKS
 
BAUDETTE MOCLDY 60 54 80 CALM 29.71R  
FLAG ISLAND PTCLDY 63 55 77 SW6 29.68R  
INTL FALLS LGT RAIN 62 51 67 W13 29.71R  
WASKISH MOCLDY 61 54 77 CALM 29.72S  
BIG FORK PTCLDY 57 54 88 CALM 29.73R  
LONGVILLE TSTM 61 54 77 W3 29.75S  
GRAND RAPIDS PTCLDY 63 52 67 SW3 29.74R  
CRANE LAKE CLEAR 54 52 94 CALM 29.71R  
ORR CLEAR 55 52 88 CALM 29.69R  
COOK CLEAR 57 54 88 CALM 29.72R  
WALKER FAIR 57 55 90 SW3 29.75S THUNDER  

 
MNZ012-019>021-037-020200-  
NORTHEAST MINNESOTA  
 
CITY SKY/WX TMP DP RH WIND PRES REMARKS
 
DULUTH PTCLDY 61 51 70 W6 29.73R  
ELY CLEAR 59 52 77 W3 29.71R  
HIBBING PTCLDY 61 52 72 W3 29.73R  
EVELETH PTCLDY 63 52 67 SW5 29.73R  
DULUTH HARBOR CLEAR 70 55 60 SW5 29.72R  
TWO HARBORS CLEAR 61 52 72 W3 29.70R  
SILVER BAY CLEAR 57 57 100 CALM 29.68R  
GRAND MARAIS N/A 63 58 83 W3 29.65R  
G MARAIS ARPRT PTCLDY 57 54 88 W5 29.70R  

 
MNZ029>031-032-039>041-046>048-054>057-064-020200-  
WEST CENTRAL MINNESOTA  
 
CITY SKY/WX TMP DP RH WIND PRES REMARKS
 
FERGUS FALLS PTCLDY 66 52 59 N5 29.76R  
WHEATON PTCLDY 64 57 77 SW5 29.79R  
MORRIS MOCLDY 66 55 68 SW3 29.77R  
ALEXANDRIA PTCLDY 63 59 87 SE5 29.78R  
ELBOW LAKE FAIR 65 58 79 SW8 29.76R  
WADENA TSTM 61 50 67 N14G22 29.80R  
GLENWOOD MOCLDY 66 57 72 SW6 29.79R  
APPLETON MOCLDY 68 54 60 SW7 29.78S  
BENSON MOCLDY 63 59 88 CALM 29.78S  
ORTONVILLE LGT RAIN 66 52 59 SW5 29.79R  
MADISON CLOUDY 72 57 60 W6 N/A  
WILLMAR FAIR 72 59 64 CALM 29.80R  

 
MNZ033>034-036-042>043-049>051-058-059-020200-  
CENTRAL MINNESOTA  
 
CITY SKY/WX TMP DP RH WIND PRES REMARKS
 
ST CLOUD PTCLDY 71 57 61 SW7 29.76S  
SAUK CENTRE FAIR 61 57 88 CALM 29.78S  
PAYNESVILLE PTCLDY 65 57 74 SE3 29.79S  
AITKIN PTCLDY 64 55 72 CALM 29.75R THUNDER  
PINE RIVER MOCLDY 64 55 72 W6 29.81R  
BRAINERD PTCLDY 65 57 75 W5 29.77R  
STAPLES PTCLDY 63 55 77 W9 29.78R THUNDER  
LONG PRAIRIE FAIR 59 54 82 S3 29.78R  
LITTLE FALLS PTCLDY 66 54 63 CALM 29.77R  
LITCHFIELD CLEAR 66 63 88 CALM 29.80S  
BUFFALO CLEAR 69 57 66 SW3 29.79S  
MAPLE LAKE CLEAR 67 60 78 CALM 29.79R  

 
MNZ037-044-045-052-053-020200-  
EAST CENTRAL MINNESOTA  
 
CITY SKY/WX TMP DP RH WIND PRES REMARKS
 
PRINCETON CLEAR 68 57 68 S3 29.77R  
MORA PTCLDY 63 55 77 CALM 29.78R  
CAMBRIDGE CLEAR 70 55 60 CALM 29.75R  
RUSH CITY CLEAR 62 56 82 CALM 29.76R  
MOOSE LAKE CLEAR 59 55 88 CALM 29.73R  
HINCKLEY FAIR 63 57 82 W3 29.76R  
CLOQUET CLEAR 61 52 72 W5 29.74R  
MCGREGOR PTCLDY 64 54 68 CALM 29.75R  

 
MNZ071>073-080-081-089-090-097-098-020200-  
SOUTHWEST MINNESOTA  
 
CITY SKY/WX TMP DP RH WIND PRES REMARKS
 
MONTEVIDEO MOCLDY 70 57 64 W6 29.79S  
GRANITE FALLS PTCLDY 66 58 75 SW8 29.81S  
CANBY MOCLDY 69 53 58 W10 29.82R  
MARSHALL PTCLDY 70 55 60 W9 29.81R  
REDWOOD FALLS CLEAR 72 58 61 SW6 29.80R  
OLIVIA CLEAR 68 61 77 SW7 29.79S  
PIPESTONE PTCLDY 66 57 72 CALM 29.86R  
WINDOM CLEAR 68 61 77 SW3 29.84R  
WORTHINGTON CLEAR 66 61 82 W6 29.87R  
JACKSON CLEAR 64 59 82 S5 29.86R  
TRACY CLEAR 67 60 75 SW6 29.83S  
SLAYTON CLEAR 67 56 67 CALM 29.85S  

 
MNZ065>067-074>077-082>085-091>093-020200-  
SOUTH CENTRAL MINNESOTA  
 
CITY SKY/WX TMP DP RH WIND PRES REMARKS
 
MANKATO CLEAR 70 55 60 CALM 29.82R  
NEW ULM CLEAR 70 61 73 CALM 29.81R  
ST JAMES CLEAR 66 63 88 S3 29.83  
FAIRMONT CLEAR 66 57 72 SW5 29.84R  
GLENCOE CLEAR 69 59 70 CALM 29.80R  
FARIBAULT CLEAR 70 57 64 CALM 29.82R  
OWATONNA CLEAR 64 59 82 SW5 29.83R  
WASECA CLEAR 63 55 77 CALM 29.84R  
ALBERT LEA PTCLDY 68 61 77 SW3 29.83S  

 
MNZ078>079-086>088-094>096-020200-  
SOUTHEAST MINNESOTA  
 
CITY SKY/WX TMP DP RH WIND PRES REMARKS
 
ROCHESTER PTCLDY 65 59 81 W7 29.83R  
RED WING PTCLDY 70 61 73 CALM 29.78R  
STANTON PTCLDY 69 57 66 W5 29.79R  
DODGE CENTER PTCLDY 64 61 88 W5 29.83R  
WINONA CLEAR 72 59 64 CALM 29.79R  
AUSTIN PTCLDY 70 55 60 CALM 29.83R  
PRESTON PTCLDY 66 62 86 CALM 29.83R  

 
ABBREVIATIONS USED IN REMARKS  
TC - TEMPERATURES IN CELSIUS  
WCI - WIND CHILL INDEX  
HX - HEAT INDEX  
VSB - VISIBILITY  

 
 
CLICK HERE TO GO TO PREVIOUS BULLETINS.

The Nexlab MN Page Main Text Page